XMM-NEWTON

Last updated on Fri Sep 11 2026 00:03:31 GMT+0000 (Coordinated Universal Time)

1 25989U 99066A 26255.11572882 .00000042 00000+0 00000+0 0 9991 2 25989 64.0266 281.8601 4649505 63.3658 0.1123 0.50126747 23441
UTC large
Height (km)
Speed (km/s)
/
Latitude / Longitude
Inclination (degrees)
Orbital Period (minutes)
Azimuth
Elevation
Range (km)
Doppler Factor

Next 0 passes for location: London (51.5072 / 0.1276)

No passes found over London.
XMM-NEWTON